[[{"header":{"parameterUnit":"m.s-1","parameterCategory":1,"la1":30.2991,"la2":30.254,"lo1":-89.0895,"lo2":-89.0444,"dy":0.0017,"dx":0.0017,"nx":28,"ny":28,"refTime":"2024-06-24T03:00:00:Z","depth":0,"parameterNumber":2,"parameterNumberName":"U-component_of_WINDS"},"data":[0,0,0,0,0,0,0,0,0,0,0,0,0,0,0,0,0,0,0,0,0,0,0,0,0,0,0,0,0,0,0,0,0,0,0,0,0,0,0,0,0,0,0,0,0,0,0,0,0,0,0,0,0,0,0,0,0,0,2.2239,2.224,0,2.2344,2.2346,2.2347,2.2298,2.2295,2.2292,2.229,2.2402,2.2408,2.2413,0,0,0,0,0,0,0,0,0,0,0,0,0,2.1999,2.2003,2.2239,2.224,2.2242,2.2344,2.2346,2.2347,2.2298,2.2295,2.2292,2.2289,2.2401,2.2407,2.2414,0,0,0,0,0,0,0,0,0,0,0,0,0,2.2104,2.2005,2.2239,2.2229,2.223,2.2344,2.2346,2.2347,2.2299,2.2295,2.2291,2.2287,2.2398,2.2406,2.2414,2.2545,0,0,2.244,2.2443,0,0,0,0,0,0,0,0,2.2098,2.2112,2.2229,2.223,2.2231,2.2304,2.2302,2.2414,2.23,2.2273,2.229,2.2285,2.2373,2.2383,2.2412,2.2551,2.2555,2.244,2.2445,2.2449,2.2451,0,0,0,0,0,0,0,2.2091,2.2108,2.2281,2.2231,2.2232,2.2221,2.2232,2.2323,2.2344,2.2275,2.2271,2.2284,2.2373,2.2404,2.2414,2.2557,2.244,2.2447,2.2452,2.2456,2.2809,2.2813,0,0,0,0,0,0,2.2083,2.2102,2.2277,2.2284,2.2153,2.2229,2.224,2.2284,2.2343,2.2348,2.2288,2.2282,2.2392,2.2405,2.2418,2.2576,2.2449,2.2457,2.2461,2.2805,2.281,2.2815,0,0,0,0,0,0,2.2078,2.2099,2.2273,2.2192,2.2213,2.2237,2.2287,2.2289,2.232,2.2353,2.2357,2.2316,2.2389,2.2406,2.2514,2.2579,2.246,2.2468,2.2799,2.2806,2.2812,2.2892,0,0,0,0,0,0,2.2071,2.2098,2.2147,2.2193,2.2218,2.2367,2.2291,2.2294,2.2334,2.2327,2.238,2.2385,2.2387,2.2502,2.2522,2.2588,2.2474,2.2794,2.2802,2.281,2.2883,2.29,2.2915,0,0,0,0,0,2.2063,2.2166,2.215,2.2171,2.228,2.237,2.2384,2.2384,2.2339,2.2389,2.241,2.2383,2.2568,2.2513,2.2536,2.2605,2.279,2.28,2.281,2.2876,2.2897,2.2914,0,0,0,0,0,0,2.2128,2.2172,2.2154,2.2275,2.2319,2.2362,2.2425,2.2406,2.2464,2.2456,2.2454,2.2466,2.2578,2.2602,2.254,2.2735,2.2672,2.2687,2.2715,2.2735,2.275,2.2743,2.2481,0,0,0,0,0,2.2156,2.2225,2.226,2.2363,2.2386,2.2402,2.2441,2.2437,2.2483,2.2502,2.2531,2.2578,2.2646,2.2692,2.2756,2.2886,2.2898,2.2945,2.296,2.2973,2.2987,2.3058,2.3079,2.2848,2.2848,2.2847,0,0,2.2216,2.2248,2.2292,2.2377,2.2411,2.2483,2.2418,2.2497,2.2552,2.2514,2.2618,2.264,2.2693,2.2812,2.2866,2.2835,2.3053,2.2986,2.2995,2.3002,2.307,2.3092,2.3111,2.2854,2.2853,2.2852,0,0,2.2362,2.2392,2.2482,2.2516,2.2567,2.2577,2.2599,2.2644,2.2657,2.276,2.2734,2.2799,2.2916,2.2955,2.299,2.3149,2.3127,2.317,2.3253,2.3322,2.334,2.3356,2.3414,2.3435,2.3183,2.3183,2.3183,0,2.243,2.2537,2.2531,2.2612,2.2651,2.2618,2.271,2.2744,2.2815,2.2843,2.2807,2.2954,2.2987,2.3115,2.3153,2.3182,2.3208,2.3165,2.3337,2.3354,2.3369,2.3424,2.3446,2.3188,2.3188,2.3187,2.3187,0,2.2618,2.2693,2.2759,2.2826,2.2872,2.2958,2.2967,2.3014,2.3005,2.3019,2.3125,2.3162,2.3235,2.3264,2.3257,2.3392,2.3371,2.3337,2.3274,2.3396,2.3448,2.3469,2.3196,2.3194,2.3192,2.3191,0,0,2.281,2.2872,2.2896,2.2926,2.298,2.3038,2.3122,2.3191,2.3232,2.3281,2.3354,2.3453,2.3421,2.3461,2.3458,2.3518,2.3643,2.3476,2.3478,2.3507,2.3795,2.3822,2.3847,2.3628,2.3632,2.3635,2.3791,0,2.2961,2.3108,2.3105,2.3242,2.3311,2.3281,2.3355,2.3396,2.3411,2.3473,2.3489,2.356,2.3512,2.3536,2.3594,2.3615,2.3701,2.3604,2.3697,2.37,2.3686,2.3874,2.3903,2.4048,2.3811,2.3815,2.3817,0,2.3157,2.3211,2.3355,2.3397,2.3426,2.3493,2.3555,2.3614,2.3661,2.3667,2.3711,2.3698,2.3785,2.3718,2.3839,2.3773,2.381,2.3826,2.3832,2.3842,2.3767,2.3891,2.4095,2.4117,2.3849,2.3846,2.3844,0,2.3285,2.3393,2.3493,2.3519,2.3571,2.3619,2.3643,2.3685,2.3726,2.3781,2.3809,2.3874,2.391,2.3961,2.3966,2.3917,2.4089,2.4022,2.4098,2.4098,2.4138,2.4136,2.4353,2.4159,2.4158,2.4158,2.4157,0,2.3454,2.3544,2.3551,2.3613,2.3712,2.3708,2.3807,2.3827,2.3864,2.393,2.3908,2.397,2.3972,2.4037,2.4041,2.4142,2.4158,2.4167,2.4167,2.417,2.4169,2.4196,2.4187,2.4164,2.4162,2.4161,2.416,0,2.3615,2.3623,2.373,2.3769,2.3781,2.3853,2.3888,2.3947,2.3959,2.4043,2.4062,2.4081,2.4156,2.4165,2.4253,2.4256,2.4377,2.4366,2.4361,2.436,2.4437,2.443,2.4681,2.4714,2.4496,2.4498,2.45,0,2.3724,2.3792,2.3838,2.3879,2.3906,2.3973,2.4015,2.4013,2.4058,2.4115,2.4168,2.424,2.4297,2.4418,2.4441,2.4508,2.45,2.4582,2.451,2.4511,2.4503,2.45,2.4507,2.4598,2.46,2.4602,2.4603,0,2.3917,2.3917,2.3977,2.4039,2.4089,2.4138,2.4184,2.422,2.4223,2.4275,2.435,2.4394,2.4483,2.4555,2.4621,2.4647,2.4627,2.4626,2.4647,2.4652,2.4647,2.4652,2.4402,2.4621,2.4619,2.4618,2.4617,2.4616,2.4056,2.4115,2.4157,2.4224,2.4258,2.4301,2.4359,2.4377,2.4439,2.451,2.4505,2.4588,2.4633,2.4719,2.4749,2.4815,2.4788,2.4819,2.4827,2.4836,2.4844,2.4634,2.4827,2.4827,2.4826,2.4826,2.4825,0,2.4249,2.4274,2.4336,2.44,2.4454,2.4427,2.4476,2.4524,2.4597,2.4639,2.4695,2.4782,2.4852,2.4879,2.4948,2.4995,2.4988,2.5014,2.5011,2.5018,2.4864,2.4839,2.5018,2.5018,2.5018,2.5018,2.5018,2.5018,2.4357,2.4455,2.446,2.4576,2.46,2.468,2.471,2.4751,2.4784,2.4881,2.4938,2.4955,2.4992,2.5062,2.5126,2.5132,2.5159,2.519,2.5192,2.5048,2.5029,2.501,2.4987,2.5195,2.5195,2.5341,2.5343,2.5344]},{"header":{"parameterUnit":"m.s-1","parameterCategory":1,"la1":30.2991,"la2":30.254,"lo1":-89.0895,"lo2":-89.0444,"dy":0.0017,"dx":0.0017,"nx":28,"ny":28,"refTime":"2024-06-24T03:00:00:Z","depth":0,"parameterNumber":3,"parameterNumberName":"V-component_of_WINDS"},"data":[0,0,0,0,0,0,0,0,0,0,0,0,0,0,0,0,0,0,0,0,0,0,0,0,0,0,0,0,0,0,0,0,0,0,0,0,0,0,0,0,0,0,0,0,0,0,0,0,0,0,0,0,0,0,0,0,0,0,2.4109,2.411,0,2.4266,2.4267,2.4269,2.427,2.4268,2.4266,2.4264,2.4425,2.4431,2.4437,0,0,0,0,0,0,0,0,0,0,0,0,0,2.381,2.3816,2.4109,2.4111,2.4113,2.4265,2.4268,2.427,2.427,2.4268,2.4265,2.4263,2.4423,2.443,2.4438,0,0,0,0,0,0,0,0,0,0,0,0,0,2.3951,2.3818,2.4108,2.4131,2.4135,2.4265,2.4268,2.427,2.4271,2.4268,2.4265,2.4262,2.4421,2.443,2.4439,2.4557,0,0,2.4467,2.4471,0,0,0,0,0,0,0,0,2.3943,2.3962,2.4126,2.413,2.4134,2.4245,2.4222,2.4366,2.4271,2.4219,2.4264,2.426,2.4368,2.4381,2.4417,2.4564,2.4571,2.4468,2.4474,2.4478,2.448,0,0,0,0,0,0,0,2.3933,2.3955,2.4171,2.4128,2.4133,2.4134,2.4151,2.4249,2.4309,2.4223,2.4224,2.4242,2.4369,2.4408,2.4421,2.4574,2.4468,2.4476,2.4482,2.4485,2.4826,2.483,0,0,0,0,0,0,2.3919,2.3947,2.4166,2.4175,2.4029,2.4142,2.416,2.4213,2.4307,2.4319,2.4245,2.4242,2.4394,2.441,2.4427,2.4572,2.4478,2.4486,2.4492,2.4823,2.4827,2.4831,0,0,0,0,0,0,2.3912,2.3938,2.4159,2.4061,2.409,2.415,2.4209,2.4217,2.4256,2.4324,2.4334,2.4274,2.4392,2.4414,2.4525,2.4577,2.449,2.4499,2.4819,2.4824,2.4829,2.4862,0,0,0,0,0,0,2.3904,2.3936,2.3981,2.4062,2.4095,2.4255,2.4212,2.4222,2.4272,2.427,2.4354,2.4365,2.4392,2.4511,2.4534,2.4589,2.4506,2.4814,2.4821,2.4827,2.4857,2.4868,2.4878,0,0,0,0,0,2.3893,2.3984,2.3983,2.401,2.4153,2.4258,2.4276,2.4305,2.4276,2.4323,2.4366,2.4362,2.4568,2.4522,2.4548,2.4606,2.4811,2.4819,2.4827,2.4852,2.4866,2.4877,0,0,0,0,0,0,2.3908,2.3995,2.3995,2.4115,2.4179,2.4257,2.4317,2.4319,2.4392,2.4387,2.442,2.4439,2.455,2.4589,2.4537,2.4726,2.4686,2.4699,2.4696,2.471,2.472,2.4709,2.4514,0,0,0,0,0,2.3925,2.4002,2.4075,2.4174,2.4206,2.4256,2.4303,2.432,2.4387,2.4414,2.4465,2.4531,2.461,2.4662,2.4739,2.4862,2.4881,2.4915,2.4925,2.4934,2.4945,2.5014,2.503,2.4857,2.4856,2.4856,0,0,2.3961,2.4019,2.4066,2.4178,2.423,2.431,2.4278,2.4364,2.4424,2.4427,2.4535,2.4575,2.4651,2.4768,2.4823,2.4804,2.4997,2.4944,2.495,2.4957,2.5024,2.504,2.5055,2.4862,2.4861,2.486,0,0,2.4069,2.412,2.4208,2.426,2.4338,2.4371,2.4392,2.447,2.4497,2.4606,2.461,2.4681,2.4818,2.4872,2.4917,2.5045,2.5044,2.5069,2.5124,2.519,2.5204,2.5216,2.5263,2.5279,2.508,2.508,2.508,0,2.4104,2.4225,2.4253,2.434,2.439,2.4395,2.4486,2.4535,2.4634,2.4668,2.4646,2.4818,2.4869,2.5,2.5031,2.5067,2.5093,2.506,2.52,2.5212,2.5224,2.5269,2.5286,2.5082,2.5082,2.5082,2.5082,0,2.4265,2.4348,2.4411,2.4506,2.4563,2.4651,2.4693,2.4747,2.4759,2.4794,2.4905,2.4967,2.5057,2.5089,2.5101,2.5222,2.5208,2.5193,2.5153,2.5243,2.5286,2.5303,2.5086,2.5085,2.5084,2.5084,0,0,2.4386,2.4497,2.4519,2.4563,2.4649,2.4715,2.4803,2.4891,2.4937,2.5005,2.508,2.5195,2.5182,2.5233,2.5252,2.531,2.5409,2.5288,2.529,2.5309,2.5546,2.5558,2.5577,2.5408,2.5412,2.5414,2.554,0,2.4504,2.466,2.4689,2.4826,2.4904,2.4911,2.4988,2.5049,2.5084,2.5156,2.5195,2.5276,2.5251,2.5283,2.5341,2.5384,2.5457,2.5375,2.5479,2.5483,2.5461,2.5599,2.5612,2.5727,2.5557,2.556,2.5562,0,2.4662,2.4734,2.4879,2.4955,2.4989,2.5058,2.5141,2.5209,2.5279,2.53,2.5358,2.537,2.5462,2.5418,2.5546,2.549,2.5534,2.5562,2.5567,2.5579,2.5528,2.5615,2.5765,2.5783,2.5588,2.5586,2.5584,0,2.4737,2.487,2.4974,2.5011,2.5103,2.5151,2.5192,2.5259,2.531,2.5382,2.5416,2.5498,2.5543,2.5607,2.5641,2.5605,2.5767,2.5725,2.5788,2.5787,2.5822,2.582,2.5982,2.5849,2.5849,2.5849,2.5848,0,2.4865,2.4954,2.5009,2.5073,2.5173,2.5205,2.5302,2.5342,2.5402,2.5474,2.5485,2.5552,2.5593,2.5666,2.5693,2.5796,2.5816,2.5836,2.5843,2.5836,2.5834,2.5866,2.5859,2.5853,2.5852,2.5851,2.5851,0,2.4966,2.5007,2.5121,2.5198,2.522,2.529,2.5356,2.5419,2.5454,2.5545,2.5568,2.5623,2.5711,2.5751,2.5858,2.5877,2.5994,2.5994,2.597,2.5973,2.6033,2.6027,2.6223,2.625,2.6098,2.61,2.6101,0,2.5046,2.5114,2.5199,2.5248,2.529,2.5368,2.5421,2.5455,2.5509,2.5594,2.5647,2.5734,2.5806,2.5945,2.5995,2.6078,2.6081,2.6144,2.6093,2.6085,2.6083,2.6079,2.6086,2.6153,2.6154,2.6156,2.6157,0,2.5183,2.52,2.5275,2.5357,2.5419,2.5485,2.555,2.559,2.5634,2.5694,2.5784,2.5839,2.595,2.6037,2.6123,2.6165,2.6169,2.6172,2.6191,2.6185,2.6169,2.618,2.5996,2.6167,2.6166,2.6166,2.6165,2.6164,2.5277,2.5338,2.5407,2.549,2.5543,2.5604,2.5666,2.5709,2.5784,2.5877,2.5892,2.5987,2.6056,2.6172,2.6217,2.6293,2.6278,2.6305,2.6312,2.6319,2.6323,2.6156,2.6308,2.6308,2.6308,2.6308,2.6307,0,2.5416,2.546,2.5536,2.5627,2.5693,2.569,2.5762,2.5817,2.5901,2.5965,2.6035,2.6138,2.6223,2.6279,2.6365,2.6414,2.6418,2.6436,2.6433,2.6443,2.6331,2.6306,2.6431,2.6431,2.6431,2.6431,2.6431,2.6431,2.5496,2.5599,2.5624,2.5754,2.5799,2.5892,2.5934,2.599,2.6041,2.6156,2.6226,2.6262,2.6323,2.6413,2.6491,2.6506,2.6537,2.6555,2.6569,2.6464,2.6451,2.6438,2.6415,2.6562,2.6562,2.6676,2.6677,2.6677]}]]